CW3783 Weather Reports


Display with metric or nautical units.
time (UTC)temp
F
wind
direction
speed
MPH
gust
MPH
rain 1hr
in
rain 24hr
in
rain mn
in
humidity
%
barometer
mb
20260509230804 69 141 3.0 5.0 0.00 0.00 0.00 65 1006.7
20260509230304 69 153 3.0 6.0 0.00 0.00 0.00 65 1006.7
20260509225306 69 144 3.0 3.0 0.00 0.00 0.00 64 1006.7
20260509224303 69 165 3.0 3.0 0.00 0.00 0.00 64 1006.7
20260509223303 69 102 4.0 7.0 0.00 0.00 0.00 63 1006.8
20260509222306 70 94 5.0 8.0 0.00 0.00 0.00 63 1006.9
20260509221803 70 145 3.0 5.0 0.00 0.00 0.00 63 1006.8
20260509220803 70 104 5.0 9.0 0.00 0.00 0.00 63 1006.9
20260509220303 70 133 5.0 12.0 0.00 0.00 0.00 64 1006.9
20260509215803 70 107 5.0 8.0 0.00 0.00 0.00 64 1006.8
20260509215306 70 107 3.0 7.0 0.00 0.00 0.00 64 1006.8
20260509214803 70 128 3.0 6.0 0.00 0.00 0.00 63 1006.9
20260509214303 70 105 4.0 7.0 0.00 0.00 0.00 63 1007.0
20260509213803 71 101 3.0 7.0 0.00 0.00 0.00 63 1007.0
20260509213303 71 133 6.0 10.0 0.00 0.00 0.00 62 1006.9
20260509212804 71 118 6.0 9.0 0.00 0.00 0.00 62 1006.9
20260509212306 72 152 5.0 9.0 0.00 0.00 0.00 62 1006.9
20260509211804 72 105 6.0 9.0 0.00 0.00 0.00 62 1006.9
20260509211304 72 117 5.0 9.0 0.00 0.00 0.00 62 1006.8
20260509210805 72 135 3.0 9.0 0.00 0.00 0.00 61 1006.8
20260509210303 72 86 2.0 8.0 0.00 0.00 0.00 61 1006.7
20260509205803 72 151 6.0 9.0 0.00 0.00 0.00 61 1006.7
20260509205306 72 175 1.0 3.0 0.00 0.00 0.00 60 1006.7
20260509204803 72 93 1.0 3.0 0.00 0.00 0.00 60 1006.6
20260509203804 72 157 7.0 9.0 0.00 0.00 0.00 61 1006.7
20260509203304 72 133 5.0 12.0 0.00 0.00 0.00 61 1006.6
20260509202803 71 135 5.0 9.0 0.00 0.00 0.00 61 1006.6
20260509201303 71 105 5.0 9.0 0.00 0.00 0.00 61 1006.8
20260509200803 71 174 4.0 8.0 0.00 0.00 0.00 61 1006.9
20260509200303 71 108 3.0 7.0 0.00 0.00 0.00 62 1007.0
20260509195306 71 146 1.0 7.0 0.00 0.00 0.00 61 1007.2
20260509193803 70 148 5.0 8.0 0.00 0.00 0.00 60 1007.5
20260509193303 70 180 3.0 8.0 0.00 0.00 0.00 60 1007.6
20260509192804 70 174 2.0 5.0 0.00 0.00 0.00 59 1007.4
20260509192305 70 129 3.0 8.0 0.00 0.00 0.00 59 1007.5
20260509191803 70 142 3.0 5.0 0.00 0.00 0.00 60 1007.5
20260509191303 70 138 5.0 9.0 0.00 0.00 0.00 59 1007.6
20260509190803 70 132 5.0 8.0 0.00 0.00 0.00 58 1007.7
20260509190303 70 135 4.0 9.0 0.00 0.00 0.00 59 1007.9
20260509185803 69 136 4.0 8.0 0.00 0.00 0.00 60 1007.9
20260509185306 69 131 5.0 10.0 0.00 0.00 0.00 60 1007.8
20260509184804 69 126 4.0 6.0 0.00 0.00 0.00 60 1007.8
20260509184303 68 91 2.0 3.0 0.00 0.00 0.00 61 1008.0
20260509183803 68 26 2.0 3.0 0.00 0.00 0.00 61 1008.0
20260509183303 68 39 2.0 3.0 0.00 0.00 0.00 61 1008.0
20260509182803 68 46 2.0 5.0 0.00 0.00 0.00 62 1008.0
20260509182306 67 9 4.0 9.0 0.00 0.00 0.00 62 1008.1
20260509181803 67 26 2.0 5.0 0.00 0.00 0.00 62 1008.2
20260509180803 67 356 5.0 7.0 0.00 0.00 0.00 61 1008.5
20260509175803 68 4 5.0 9.0 0.00 0.00 0.00 61 1008.7
20260509175306 68 346 6.0 9.0 0.00 0.00 0.00 61 1008.7
20260509174304 67 314 2.0 3.0 0.00 0.00 0.00 62 1008.6
20260509173804 67 19 3.0 6.0 0.00 0.00 0.00 62 1008.6
20260509173303 67 346 4.0 7.0 0.00 0.00 0.00 62 1008.6
20260509172803 67 344 4.0 7.0 0.00 0.00 0.00 63 1008.6
20260509172306 67 326 2.0 7.0 0.00 0.00 0.00 64 1008.7
20260509171304 67 337 3.0 7.0 0.00 0.00 0.00 62 1008.7
20260509170803 67 306 4.0 6.0 0.00 0.00 0.00 62 1008.9
20260509170303 67 1 2.0 5.0 0.00 0.00 0.00 62 1008.8
20260509165306 68 7 1.0 3.0 0.00 0.00 0.00 61 1008.7
20260509163804 68 202 1.0 3.0 0.00 0.00 0.00 59 1008.9
20260509163303 68 229 3.0 10.0 0.00 0.00 0.00 59 1008.9
20260509162804 68 201 4.0 8.0 0.00 0.00 0.00 59 1008.8
20260509162307 68 193 4.0 10.0 0.00 0.00 0.00 59 1008.9
20260509161803 68 196 4.0 12.0 0.00 0.00 0.00 58 1008.9
20260509161304 68 221 4.0 12.0 0.00 0.00 0.00 58 1008.9
20260509160803 68 172 7.0 12.0 0.00 0.00 0.00 59 1009.1
20260509160303 68 214 5.0 12.0 0.00 0.00 0.00 59 1009.1
20260509155803 68 222 6.0 13.0 0.00 0.00 0.00 60 1009.1
20260509155306 68 194 6.0 13.0 0.00 0.00 0.00 58 1009.2
20260509154304 68 238 3.0 8.0 0.00 0.00 0.00 59 1009.1
20260509153804 68 216 4.0 9.0 0.00 0.00 0.00 59 1009.1
20260509153303 67 185 2.0 8.0 0.00 0.00 0.00 61 1009.2
20260509152803 67 181 5.0 10.0 0.00 0.00 0.00 61 1009.3
20260509152305 66 214 2.0 5.0 0.00 0.00 0.00 63 1009.3
20260509151803 65 163 3.0 6.0 0.00 0.00 0.00 62 1009.4
20260509150305 64 236 5.0 8.0 0.00 0.00 0.00 63 1009.7
20260509145803 63 197 3.0 9.0 0.00 0.00 0.00 64 1009.8
20260509145309 63 201 3.0 6.0 0.00 0.00 0.00 64 1009.9
20260509144809 63 216 5.0 9.0 0.00 0.00 0.00 63 1010.0
20260509144313 63 197 3.0 9.0 0.00 0.00 0.00 63 1010.0
20260509143322 63 206 4.0 8.0 0.00 0.00 0.00 62 1010.0
20260509142817 63 219 3.0 8.0 0.00 0.00 0.00 62 1010.0
20260509142306 63 221 3.0 8.0 0.00 0.00 0.00 63 1009.9
20260509141803 63 193 6.0 9.0 0.00 0.00 0.00 62 1009.8
20260509141304 63 193 5.0 10.0 0.00 0.00 0.00 62 1009.8
20260509140804 63 208 5.0 12.0 0.00 0.00 0.00 62 1009.8
20260509135803 63 192 2.0 5.0 0.00 0.00 0.00 64 1009.8
20260509135306 63 286 2.0 6.0 0.00 0.00 0.00 64 1009.8
20260509134803 62 248 2.0 7.0 0.00 0.00 0.00 64 1009.9
20260509133803 62 192 5.0 9.0 0.00 0.00 0.00 63 1009.8
20260509133303 62 227 4.0 9.0 0.00 0.00 0.00 63 1009.8
20260509132803 62 217 6.0 12.0 0.00 0.00 0.00 63 1009.9
20260509132306 62 194 6.0 12.0 0.00 0.00 0.00 63 1009.8
20260509131803 62 207 6.0 13.0 0.00 0.00 0.00 63 1009.8
20260509131303 62 221 5.0 12.0 0.00 0.00 0.00 63 1009.8
20260509130803 62 237 4.0 10.0 0.00 0.00 0.00 63 1009.7
20260509130304 62 238 3.0 9.0 0.00 0.00 0.00 64 1009.7
20260509124804 61 234 2.0 9.0 0.00 0.00 0.00 65 1009.7
20260509124303 60 228 2.0 7.0 0.00 0.00 0.00 65 1009.8
20260509123803 60 225 3.0 7.0 0.00 0.00 0.00 65 1009.7
20260509122804 60 211 2.0 6.0 0.00 0.00 0.00 66 1009.6
20260509121305 59 177 3.0 7.0 0.00 0.00 0.00 65 1009.6
20260509120803 59 184 3.0 8.0 0.00 0.00 0.00 65 1009.6
20260509120303 59 188 2.0 7.0 0.00 0.00 0.00 64 1009.6
20260509115803 59 202 3.0 8.0 0.00 0.00 0.00 64 1009.6
20260509115306 59 203 4.0 9.0 0.00 0.00 0.00 64 1009.6
20260509114803 59 177 3.0 7.0 0.00 0.00 0.00 63 1009.6
20260509114303 59 159 2.0 8.0 0.00 0.00 0.00 63 1009.5
20260509113803 58 186 3.0 6.0 0.00 0.00 0.00 63 1009.5
20260509113303 58 176 3.0 6.0 0.00 0.00 0.00 63 1009.4
20260509112803 58 177 3.0 7.0 0.00 0.00 0.00 63 1009.4
20260509112306 58 184 3.0 7.0 0.00 0.00 0.00 63 1009.4
20260509111803 58 177 3.0 7.0 0.00 0.00 0.00 63 1009.4
20260509111303 58 171 4.0 9.0 0.00 0.00 0.00 63 1009.4
20260509110803 58 171 3.0 5.0 0.00 0.00 0.00 63 1009.5
20260509110303 58 171 2.0 7.0 0.00 0.00 0.00 63 1009.4
20260509105306 58 178 3.0 8.0 0.00 0.00 0.00 62 1009.2
20260509104803 58 185 3.0 3.0 0.00 0.00 0.00 62 1009.2
20260509104303 58 188 2.0 3.0 0.00 0.00 0.00 62 1009.2
20260509103803 58 169 3.0 5.0 0.00 0.00 0.00 62 1009.0
20260509103303 58 184 2.0 3.0 0.00 0.00 0.00 61 1009.1
20260509102803 59 191 2.0 3.0 0.00 0.00 0.00 61 1009.1
20260509102305 59 186 2.0 3.0 0.00 0.00 0.00 61 1009.1
20260509101304 59 181 2.0 3.0 0.00 0.00 0.00 61 1009.0
20260509100803 59 184 4.0 8.0 0.00 0.00 0.00 60 1008.9
20260509095803 59 179 3.0 3.0 0.00 0.00 0.00 60 1008.8
20260509094803 59 197 2.0 3.0 0.00 0.00 0.00 59 1008.9
20260509094303 59 194 2.0 5.0 0.00 0.00 0.00 59 1009.0
20260509093804 59 203 3.0 7.0 0.00 0.00 0.00 59 1008.9
20260509093303 59 191 3.0 8.0 0.00 0.00 0.00 59 1008.9
20260509092803 59 222 2.0 8.0 0.00 0.00 0.00 59 1008.8
20260509092306 59 212 4.0 9.0 0.00 0.00 0.00 59 1008.8
20260509091803 59 213 3.0 7.0 0.00 0.00 0.00 59 1008.9
20260509090303 59 209 4.0 12.0 0.00 0.00 0.00 59 1009.1
20260509085803 59 196 3.0 9.0 0.00 0.00 0.00 59 1009.1
20260509085306 59 214 4.0 9.0 0.00 0.00 0.00 59 1009.2
20260509084803 59 221 5.0 10.0 0.00 0.00 0.00 60 1009.2
20260509084303 59 217 6.0 10.0 0.00 0.00 0.00 60 1009.2
20260509083803 58 246 4.0 9.0 0.00 0.00 0.00 60 1009.2
20260509083303 58 221 5.0 12.0 0.00 0.00 0.00 61 1009.3
20260509082804 58 198 2.0 10.0 0.00 0.00 0.00 61 1009.3
20260509082306 58 204 5.0 12.0 0.00 0.00 0.00 62 1009.4
20260509081804 57 197 5.0 12.0 0.00 0.00 0.00 63 1009.6
20260509080803 57 203 6.0 12.0 0.00 0.00 0.00 64 1009.7
20260509080303 57 222 5.0 9.0 0.00 0.00 0.00 64 1009.7
20260509075803 56 207 4.0 8.0 0.00 0.00 0.00 64 1009.7
20260509075306 56 196 4.0 9.0 0.00 0.00 0.00 65 1009.7
20260509074804 56 217 3.0 7.0 0.00 0.00 0.00 66 1009.7
20260509074303 56 209 2.0 3.0 0.00 0.00 0.00 66 1009.7
20260509073803 56 202 3.0 6.0 0.00 0.00 0.00 66 1009.7
20260509072804 55 205 3.0 8.0 0.00 0.00 0.00 67 1009.8
20260509072306 55 204 4.0 8.0 0.00 0.00 0.00 68 1009.7
20260509071803 55 197 3.0 7.0 0.00 0.00 0.00 68 1009.7
20260509071304 55 209 2.0 3.0 0.00 0.00 0.00 68 1009.7
20260509070803 55 198 2.0 5.0 0.00 0.00 0.00 68 1009.8
20260509070303 55 180 2.0 3.0 0.00 0.00 0.00 68 1009.8
20260509065803 55 180 2.0 3.0 0.00 0.00 0.00 69 1009.9
20260509065306 55 180 2.0 3.0 0.00 0.00 0.00 68 1009.8
20260509064803 55 180 2.0 3.0 0.00 0.00 0.00 68 1009.9
20260509064303 55 180 1.0 3.0 0.00 0.00 0.00 68 1009.9
20260509062804 54 180 2.0 3.0 0.00 0.00 0.00 68 1010.1
20260509062306 54 180 2.0 3.0 0.00 0.00 0.00 68 1010.1
20260509061803 54 221 2.0 3.0 0.00 0.00 0.00 68 1010.2
20260509060803 54 221 1.0 3.0 0.00 0.00 0.00 68 1010.3
20260509060303 54 221 1.0 3.0 0.00 0.00 0.00 68 1010.3
20260509055803 54 221 1.0 3.0 0.00 0.00 0.00 67 1010.3
20260509055306 54 221 1.0 3.0 0.00 0.00 0.00 67 1010.3
20260509054803 55 221 1.0 2.0 0.00 0.00 0.00 67 1010.5
20260509053803 55 221 1.0 2.0 0.00 0.00 0.00 66 1010.4
20260509053303 55 221 1.0 2.0 0.00 0.00 0.00 66 1010.4
20260509052803 55 221 1.0 3.0 0.00 0.00 0.00 65 1010.4
20260509052306 55 221 0.0 2.0 0.00 0.00 0.00 65 1010.4
20260509051803 56 221 0.0 2.0 0.00 0.00 0.00 65 1010.4
20260509051303 56 221 0.0 1.0 0.00 0.00 0.00 64 1010.5
20260509050804 56 221 1.0 3.0 0.00 0.00 0.00 64 1010.5
20260509050303 56 189 2.0 3.0 0.00 0.00 0.00 64 1010.4
20260509045804 56 160 2.0 3.0 0.00 0.00 0.00 64 1010.4
20260509045306 56 196 2.0 3.0 0.00 0.00 0.00 64 1010.4
20260509044803 56 200 2.0 5.0 0.00 0.00 0.00 63 1010.5
20260509043803 57 177 2.0 3.0 0.00 0.00 0.00 63 1010.4
20260509042803 57 190 2.0 3.0 0.00 0.00 0.00 63 1010.5
20260509041303 57 210 3.0 7.0 0.00 0.00 0.00 65 1010.5
20260509040803 57 212 3.0 5.0 0.00 0.00 0.00 65 1010.6
20260509040304 57 187 3.0 10.0 0.00 0.00 0.00 65 1010.6
20260509035803 57 186 3.0 8.0 0.00 0.00 0.00 65 1010.6
20260509034303 58 178 2.0 5.0 0.00 0.00 0.00 64 1010.7
20260509033803 58 179 2.0 5.0 0.00 0.00 0.00 64 1010.6
20260509033304 58 174 3.0 6.0 0.00 0.00 0.00 63 1010.7
20260509032803 59 178 3.0 5.0 0.00 0.00 0.00 63 1010.7
20260509032306 59 167 3.0 5.0 0.00 0.00 0.00 62 1010.7
20260509030803 60 185 2.0 3.0 0.00 0.00 0.00 60 1010.8
20260509030303 60 185 2.0 3.0 0.00 0.00 0.00 59 1010.8
20260509025803 60 185 2.0 3.0 0.00 0.00 0.00 59 1010.8
20260509025306 61 189 1.0 3.0 0.00 0.00 0.00 58 1010.8
20260509024303 61 189 2.0 3.0 0.00 0.00 0.00 56 1010.7
20260509023803 62 188 3.0 3.0 0.00 0.00 0.00 56 1010.7
20260509023303 62 189 2.0 3.0 0.00 0.00 0.00 55 1010.7
20260509022803 62 189 1.0 3.0 0.00 0.00 0.00 54 1010.8
20260509022306 63 189 2.0 3.0 0.00 0.00 0.00 54 1010.9
20260509021803 63 189 2.0 3.0 0.00 0.00 0.00 53 1010.8
20260509020803 63 174 3.0 3.0 0.00 0.00 0.00 52 1010.8
20260509020303 64 178 3.0 5.0 0.00 0.00 0.00 51 1010.6
20260509015803 64 156 3.0 5.0 0.00 0.00 0.00 50 1010.7
20260509015306 64 174 2.0 5.0 0.00 0.00 0.00 50 1010.7
20260509014803 64 191 2.0 3.0 0.00 0.00 0.00 50 1010.7
20260509014303 65 192 3.0 5.0 0.00 0.00 0.00 49 1010.7
20260509013804 65 185 2.0 3.0 0.00 0.00 0.00 49 1010.7
20260509013303 65 180 2.0 3.0 0.00 0.00 0.00 48 1010.6
20260509012803 65 181 2.0 3.0 0.00 0.00 0.00 46 1010.6
20260509012306 65 142 2.0 3.0 0.00 0.00 0.00 45 1010.6
20260509011804 65 146 3.0 3.0 0.00 0.00 0.00 44 1010.7
20260509011303 65 187 2.0 3.0 0.00 0.00 0.00 43 1010.6
20260509010804 65 180 2.0 3.0 0.00 0.00 0.00 43 1010.5
20260509010304 66 187 2.0 5.0 0.00 0.00 0.00 42 1010.4
20260509005803 66 183 3.0 5.0 0.00 0.00 0.00 42 1010.3
20260509005306 66 185 1.0 3.0 0.00 0.00 0.00 41 1010.4
20260509004303 66 187 3.0 7.0 0.00 0.00 0.00 41 1010.3
20260509003303 66 212 2.0 3.0 0.00 0.00 0.00 41 1010.2
20260509002803 66 215 1.0 2.0 0.00 0.00 0.00 40 1010.2
20260509001803 67 203 2.0 5.0 0.00 0.00 0.00 39 1010.0
20260509001304 67 206 1.0 6.0 0.00 0.00 0.00 39 1010.0
20260509000304 67 226 1.0 3.0 0.00 0.00 0.00 38 1009.9
20260508235803 67 192 3.0 3.0 0.00 0.00 0.00 38 1009.8
20260508235306 67 227 2.0 3.0 0.00 0.00 0.00 38 1009.8
20260508234804 67 206 3.0 7.0 0.00 0.00 0.00 37 1009.8
20260508234303 68 208 1.0 3.0 0.00 0.00 0.00 36 1009.7
20260508233803 68 212 2.0 3.0 0.00 0.00 0.00 36 1009.6
20260508233303 68 259 0.0 3.0 0.00 0.00 0.00 35 1009.6
20260508232804 68 259 0.0 0.0 0.00 0.00 0.00 34 1009.5
20260508232306 68 259 1.0 3.0 0.00 0.00 0.00 34 1009.6
20260508231803 68 259 0.0 0.0 0.00 0.00 0.00 34 1009.5